Location: Newark
(30.0333°N, 31.2167°E)
Time: 00:40:09
(UTC+00:00)

Vanguard 3 - Pass Details

Date: 25 January 2020
Orbit: 508 x 3263 km, 33.3° (Epoch: 25 February)

Event Time Altitude Azimuth Distance (km) Brightness Sun altitude
Rises 15:53:16 0° 254° (WSW) 6,945 14.7 -6.5°
Reaches altitude 10° 15:57:41 10° 254° (WSW) 6,080 13.4 -7.4°
Maximum altitude 16:18:03 87° 345° (NNW) 3,085 10.0 -11.6°
Enters shadow 16:31:56 17° 76° (ENE) 4,506 10.2 -14.5°
